• Join FlightAware (Why Join?)
  • Login
  • US Flag 
02:45AM EST


 

Airport Tracker/Info


-or-


 

Live Flight TrackerFlight Track Log ✈ 9Y-BGI ✈ 23-Apr-2013 ✈ MKJS / MBJ - KFLL

Flight Track Log - Related Links

Times and Time Zones

All times are in EDT time to prevent confusion due to time zone crossing. See the 9Y-BGI flight status page for this flight to view local times or setup timezone preferences in your user account.

Time Position Orientation Groundspeed Altitude Reporting Facility
EDT Latitude Longitude Course Direction KTS MPH feet Rate Location/Type
01:01PM 19.0478 -78.0214 349° North  Level FlightAware Approximate
01:02PM 19.1566 -78.0431 349° North  Level FlightAware Approximate
01:03PM 19.2654 -78.0649 349° North  Level FlightAware Approximate
01:04PM 19.3742 -78.0866 349° North  Level FlightAware Approximate
01:05PM 19.4830 -78.1084 349° North  Level FlightAware Approximate
01:06PM 19.5918 -78.1302 349° North  Level FlightAware Approximate
01:07PM 19.7006 -78.1521 349° North  Level FlightAware Approximate
01:08PM 19.8093 -78.1739 349° North  Level FlightAware Approximate
01:09PM 19.9181 -78.1958 349° North  Level FlightAware Approximate
01:10PM 20.0269 -78.2178 349° North  Level FlightAware Approximate
01:11PM 20.1357 -78.2397 349° North  Level FlightAware Approximate
01:12PM 20.2445 -78.2617 349° North  Level FlightAware Approximate
01:13PM 20.3533 -78.2838 349° North  Level FlightAware Approximate
01:14PM 20.4561 -78.3047 349° North  Level FlightAware Approximate
01:15PM 20.5648 -78.3273 349° North  Level FlightAware Approximate
01:16PM 20.6735 -78.3499 349° North  Level FlightAware Approximate
01:17PM 20.7821 -78.3725 349° North  Level FlightAware Approximate
01:18PM 20.8908 -78.3952 349° North  Level FlightAware Approximate
01:19PM 20.9995 -78.4178 349° North  Level FlightAware Approximate
01:20PM 21.1082 -78.4406 349° North  Level FlightAware Approximate
01:21PM 21.2168 -78.4633 349° North  Level FlightAware Approximate
01:22PM 21.3255 -78.4861 349° North  Level FlightAware Approximate
01:23PM 21.4342 -78.5090 349° North  Level FlightAware Approximate
01:24PM 21.5428 -78.5318 349° North  Level FlightAware Approximate
01:25PM 21.6512 -78.5561 348° North  Level FlightAware Approximate
01:26PM 21.7596 -78.5806 348° North  Level FlightAware Approximate
01:27PM 21.8679 -78.6050 348° North  Level FlightAware Approximate
01:28PM 21.9763 -78.6295 348° North  Level FlightAware Approximate
01:29PM 22.0847 -78.6541 348° North  Level FlightAware Approximate
01:30PM 22.1930 -78.6787 348° North  Level FlightAware Approximate
01:31PM 22.3014 -78.7033 348° North  Level FlightAware Approximate
01:32PM 22.4097 -78.7280 348° North  Level FlightAware Approximate
01:33PM 22.5183 -78.7512 349° North  Level FlightAware Approximate
01:34PM 22.6270 -78.7741 349° North  Level FlightAware Approximate
01:35PM 22.7357 -78.7971 349° North  Level FlightAware Approximate
01:36PM 22.8444 -78.8200 349° North  Level FlightAware Approximate
01:37PM 22.9455 -78.8414 349° North  Level FlightAware Approximate
01:38PM 23.0466 -78.8629 349° North  Level FlightAware Approximate
01:39PM 23.1477 -78.8843 349° North  Level FlightAware Approximate
01:40PM 23.2488 -78.9058 349° North  Level FlightAware Approximate
01:40PM 23.2244 -78.8958 349° North 453 521 38,000  Level Miami Center
01:41PM 23.3499 -78.9274 349° North  Level FlightAware Approximate
01:41PM 23.3367 -78.9225 348° North 436 502 38,000  Level Miami Center
01:42PM 23.4510 -78.9490 349° North  Level FlightAware Approximate
01:42PM 23.4431 -78.9422 350° North 428 493 38,000  Level Miami Center
01:43PM 23.5521 -78.9706 349° North  Level FlightAware Approximate
01:43PM 23.5556 -78.9736 346° North 397 457 38,000  Level Miami Center
01:44PM 23.6532 -78.9922 349° North  Level FlightAware Approximate
01:44PM 23.6556 -78.9911 351° North 391 450 36,800  Level Miami Center
01:45PM 23.7543 -79.0139 349° North  Level FlightAware Approximate
01:45PM 23.7681 -79.0181 348° North 391 450 36,000  Level Miami Center
01:46PM 23.8554 -79.0356 349° North  Level FlightAware Approximate
01:46PM 23.8764 -79.0425 348° North 397 457 36,000  Level Miami Center
01:47PM 23.9886 -79.0694 348° North 397 457 36,000  Level Miami Center
01:48PM 24.1014 -79.0853 353° North 397 457 36,000  Level Miami Center
01:49PM 24.2097 -79.0961 355° North 410 472 36,000 -250 Level Miami Center
01:50PM 24.3328 -79.1167 351° North 420 483 35,500 -700 Descending Miami Center
01:51PM 24.4581 -79.1325 353° North 425 489 34,600 -1,400 Descending Miami Center
01:52PM 24.5725 -79.1531 351° North 414 476 32,700 -2,350 Descending Miami Center
01:53PM 24.6828 -79.1917 342° North 409 471 29,900 -3,250 Descending Miami Center
01:54PM 24.7947 -79.2350 341° North 415 478 26,200 -2,700 Descending Miami Center
01:55PM 24.9050 -79.2761 341° North 421 484 24,500 -2,150 Descending Miami Center
01:56PM 25.0025 -79.3122 341° North 398 458 21,900 -2,550 Descending Miami Center
01:57PM 25.1047 -79.3258 353° North 377 434 19,400 -2,550 Descending Miami Center
01:58PM 25.1856 -79.3597 339° North 355 409 16,800 -2,350 Descending Miami Center
01:59PM 25.2769 -79.3983 339° North 350 403 14,700 -1,900 Descending Miami Center
02:00PM 25.3642 -79.4322 341° North 339 390 13,000 -1,538 Descending Miami Center
02:01PM 25.4511 -79.4708 338° Northwest 330 380 11,700 -1,200 Descending Miami Center
02:02PM 25.5319 -79.5025 341° North 328 377 10,600 -970 Descending Miami Center
02:03PM 25.5858 -79.5267 338° Northwest 306 352 10,100 -1,200 Descending Miami Center
02:03PM 25.6131 -79.5342 346° North 317 365 9,400 -1,574 Descending Miami Center
02:04PM 25.6647 -79.5586 337° Northwest 290 334 8,500 -1,300 Descending Miami Center
02:04PM 25.6897 -79.5658 345° North 298 343 8,100 -1,161 Descending Miami Center
02:05PM 25.7414 -79.5903 337° Northwest 279 321 7,300 -1,100 Descending Miami Center
02:05PM 25.7622 -79.5953 348° North 287 330 7,000 -1,000 Descending Miami Center
02:06PM 25.8119 -79.6172 338° Northwest 272 313 6,300 -900 Descending Miami Center
02:06PM 25.8306 -79.6222 346° North 276 318 6,100 -290 Descending Miami Center
02:07PM 25.8653 -79.6739 307° West 270 311 6,000 -100 Descending Miami Center
02:07PM 25.8756 -79.6856 314° West 257 296 6,000  Level Miami Center
02:08PM 25.8953 -79.7461 290° West 267 307 6,000  Level Miami Center
02:08PM 25.9075 -79.7603 314° West 256 295 6,000  Level Miami Center
02:09PM 25.9292 -79.8231 291° West 269 310 6,000  Level Miami Center
02:09PM 25.9372 -79.8372 302° West 261 300 6,000  Level Miami Center
02:10PM 25.9650 -79.9094 293° West 267 307 6,000  Level Miami Center
02:11PM 25.9969 -79.9775 298° West 271 312 6,000  Level Miami Center
02:12PM 26.0417 -80.0408 308° West 265 305 6,000  Level Miami Center
02:13PM 26.0858 -80.1139 304° West 223 257 6,000 -465 Level Miami Center
02:14PM 26.1222 -80.1703 306° West 228 262 5,000 -1,279 Descending Miami Center
02:15PM 26.1353 -80.2400 282° West 227 261 3,400 -1,415 Descending Miami Center
02:16PM 26.1028 -80.2925 235° Southwest 216 249 2,100 -927 Descending Miami Center
02:17PM 26.0744 -80.2522 128° Southeast 144 166 1,500 -683 Descending Miami Center
02:18PM 26.0733 -80.2083 92° East 146 168 700 -774 Descending Miami Center
02:20PM 26.0667 -80.1500 77° East  Level FlightAware Approximate
02:27PM 26.0726 -80.1527 77° East  Level Estimated